Regional Weather Roundup
Issued by NWS

Home | Current Version | Previous Version | Text Only | Print | Product List | Glossary Off
Versions: 1 2 3 4 5 6 7 8 9 10 11 12 13 14 15 16 17 18 19 20 21 22 23 24 25 26 27

000
ASUS45 KBOU 242107
RWRCO

WEATHER ROUNDUP FOR COLORADO
NATIONAL WEATHER SERVICE DENVER/BOULDER CO
300 PM MDT MON JUL 24 2017

NOTE: "FAIR" INDICATES FEW OR NO CLOUDS BELOW 12000 FEET WITH NO
SIGNIFICANT WEATHER AND/OR OBSTRUCTIONS TO VISIBILITY.

COZ001>005-013-030-031-242200-
...NORTHWEST COLORADO...

CITY           SKY/WX    TMP DP  RH WIND       PRES   REMARKS
CRAIG          FAIR      92  34  13 N7        30.12F
HAYDEN         FAIR      88  37  16 NW8       30.16F
MEEKER         FAIR      87  35  15 VRB3      30.15F
RABBIT EARS PA FAIR      70  36  28 SW7       30.53S
STEAMBOAT SPGS FAIR      85  39  19 W3        30.18F
WALDEN         FAIR      81  32  17 W6        30.30F
$$

COZ006>008-011-242200-
...WEST CENTRAL VALLEYS...

CITY           SKY/WX    TMP DP  RH WIND       PRES   REMARKS
GRAND JUNCTION FAIR      93  47  20 SW8       30.01F
MONTROSE       FAIR      88  45  22 NW7       30.10F
EAGLE          MOSUNNY   88  39  18 MISG      30.16F
RIFLE          FAIR      93  41  16 N5        30.06F
DELTA          FAIR      94  42  16 S6        30.05F
NUCLA          FAIR      88  45  22 N5        30.15F
$$

COZ017>023-064>068-242200-
...SOUTHWEST COLORADO...

CITY           SKY/WX    TMP DP  RH WIND       PRES   REMARKS
DURANGO        PTSUNNY   84  48  28 MISG      30.20F
CORTEZ         FAIR      87  47  24 SW7       30.13F
PAGOSA SPRINGS FAIR      77  44  29 NW6       30.28F
TELLURIDE      PTSUNNY   69  47  45 SW6       30.42S
WOLF CREEK PAS NOT AVBL
$$

COZ009-010-012-014-032>034-037-058>063-242200-
...CENTRAL COLORADO...

CITY           SKY/WX    TMP DP  RH WIND       PRES   REMARKS
ASPEN          FAIR      85  36  17 NW9       30.24F
BUENA VISTA    FAIR      82  35  18 SE9       30.26F
COPPER MTN     FAIR      68  32  26 NE8       30.64F
BERTHOUD PASS  PTSUNNY   55  41  58 W6        30.69S
COTTONWOOD PAS FAIR      81  30  16 E8        30.44F
GUNNISON       FAIR      82  38  20 S5        30.25F
KREMMLING      FAIR      86  34  15 NW9       30.25F
LEADVILLE      FAIR      71  29  21 W8        30.42F
MONARCH PASS   RAIN      55  37  50 NE12      30.74S
SALIDA         FAIR      86  38  18 SW5       30.30S
SUNLIGHT       PTSUNNY   64  37  36 CALM      30.56F
WILKERSON PASS FAIR      68  32  26 N7        30.60F
$$

COZ069>075-242200-
...SAN LUIS VALLEY/SANGRE DE CRISTO MOUNTAINS...

CITY           SKY/WX    TMP DP  RH WIND       PRES   REMARKS
ALAMOSA        FAIR      75  49  39 SW12      30.27F
DEL NORTE      FAIR      74  49  41 SW13      30.32S
LA VETA PASS   NOT AVBL
SAGUACHE         N/A    N/A N/A N/A MISG        N/A
$$

COZ035-036-038>040-242200-
...NORTHERN COLORADO FRONT RANGE...

CITY           SKY/WX    TMP DP  RH WIND       PRES   REMARKS
DENVER INTL AP FAIR      97  33  10 NE9       30.03F
DMNS CITY PARK   N/A     96  34  11 NE8       30.03S
AURORA         MOSUNNY   94  34  11 E8        30.06F
FRONT RANGE AP FAIR      97  34  11 NE5G18    30.05F
ERIE MUNI ARPT FAIR      97  32  10 E8        30.01F
BOULDER MUN AP FAIR      95  39  14 NE3       30.03S
CENTENNIAL     FAIR      95  29   9 NE9       30.08F
BROOMFIELD     FAIR      95  32  11 CALM      30.07F
FORT COLLINS   FAIR      93  40  15 VRB3      30.02S
LONGMONT       FAIR      94  42  16 CALM      30.04S
$$

COZ041-046-047-076>085-087-088-242200-
...PIKES PEAK/PALMER DIVIDE AND SOUTHERN FOOTHILLS...

CITY           SKY/WX    TMP DP  RH WIND       PRES   REMARKS
COLO. SPRINGS  PTSUNNY   86  49  27 SE10      30.15S
A. F. ACADEMY  FAIR      86  50  28 S16G22    30.15F
SCHRIEVER AFB  FAIR      82  47  28 SE9       30.16S
CHEYENNE MTN   PTSUNNY   79  49  35 SE7       30.15F
ELLICOTT       FAIR     N/A N/A N/A SE8       30.13F
FALCON           N/A     85  47  26 E12G18    30.21F
FORT CARSON    FAIR      88  46  23 NE3       30.11F
LIMON          FAIR      89  47  23 SE14      30.08F
MONUMENT HILL  FAIR      82  48  30 S12G17    30.21F
CANON CITY     SUNNY     93  52  24 NE9       30.05F
WALSENBURG     FAIR      91  41  17 NE10      30.11F
TRINIDAD       FAIR      92  35  13 VRB5      30.10F
$$

COZ042>045-048>051-090-091-242200-
...NORTHEAST COLORADO...

CITY           SKY/WX    TMP DP  RH WIND       PRES   REMARKS
GREELEY ARPT   FAIR      96  42  15 VRB3      29.98F
AKRON          FAIR      95  47  19 S14G23    30.00F
BURLINGTON     FAIR      94  56  27 S18G24    30.03F
WRAY           NOT AVBL
YUMA           FAIR      95  32  11 S12G18    29.97F
STERLING       FAIR      99  52  20 S12       29.92F
HOLYOKE        FAIR      99  54  22 S16       29.95F
FORT MORGAN    FAIR     101  42  13 S10G18    29.97F
$$

COZ086-089-092>099-242200-
...SOUTHEAST COLORADO...

CITY           SKY/WX    TMP DP  RH WIND       PRES   REMARKS
PUEBLO         FAIR      95  47  19 S5        29.99F
LA JUNTA       FAIR      96  48  19 MISG      29.99F
LAMAR          FAIR      95  57  27 S14G21    29.97F
SPRINGFIELD      N/A     92  58  31 S13G24    30.04F
$$




USA.gov is the U.S. government's official web portal to all federal, state and local government web resources and services.